Weather History for Clarksdale Fletcher Field Air, MS

Change the Weather History Date:

Tuesday, December 31, 2013

  Actual Average (KMEM) Record (KMEM)
Temperature  
Mean Temperature 34 °F 41 °F  
Max Temperature 44 °F 50 °F 79 °F (1951)
Min Temperature 24 °F 33 °F 9 °F (1976)
Degree Days  
Heating Degree Days 31 24  
Month to date heating degree days 667  
Since 1 July heating degree days 1164  
Cooling Degree Days 0 0  
Month to date cooling degree days 2  
Year to date cooling degree days 2258  
Moisture  
Dew Point 29 °F    
Average Humidity 87    
Maximum Humidity 100    
Minimum Humidity 53    
Precipitation  
Precipitation 0.00 in 0.16 in 3.23 in (1944)
Month to date precipitation 5.74  
Year to date precipitation 53.68  
Snow  
Snow 0.00 in 0.00 in 2.00 in (2000)
Month to date snowfall 0.2  
Since 1 July snowfall 0.2  
Snow Depth -    
Sea Level Pressure  
Sea Level Pressure 30.42 in    
Wind  
Wind Speed - (North)    
Max Wind Speed -    
Max Gust Speed -    
Visibility 8 miles    
Events      
T = Trace of Precipitation, MM = Missing Value Source: NWS Daily Summary

Daily Weather History Graph

Daily Weather History Graph

Search for Another Location

Airport:

Trip Planner

Search our weather history database for the weather conditions in past years. The results will help you decide how hot, cold, wet, or windy it might be!

Date:

Astronomy

Dec. 31, 2013 Rise Set
Actual Time 7:08 AM CST 5:02 PM CST
Civil Twilight 6:40 AM CST 5:30 PM CST
Nautical Twilight 6:08 AM CST 6:01 PM CST
Astronomical Twilight 5:38 AM CST 6:32 PM CST
Moon 6:02 AM CST (12/31) 4:36 PM CST (12/31)
Length of Visible Light 10h 49m
Length of Day
9h 54m
Waning Crescent, 1% of the Moon is Illuminated
Dec 31
Waning Crescent
Jan 1
New
Jan 7
First Quarter
Jan 15
Full
Jan 23
Last Quarter

Hourly Weather History & Observations

Time (CST) Temp. Dew Point Humidity Pressure Visibility Wind Dir Wind Speed Gust Speed Precip Events Conditions
12:15 AM 30.2 °F 28.4 °F 93% 30.39 in 10.0 mi North - - N/A   Clear
12:35 AM 30.2 °F 28.4 °F 93% 30.40 in 10.0 mi North - - N/A   Clear
12:55 AM 28.4 °F 28.4 °F 100% 30.40 in 10.0 mi North - - N/A   Clear
1:15 AM 28.4 °F 26.6 °F 93% 30.40 in 10.0 mi North - - N/A   Clear
1:35 AM 28.4 °F 26.6 °F 93% 30.39 in 10.0 mi North - - N/A   Clear
1:55 AM 26.6 °F 26.6 °F 100% 30.41 in 10.0 mi North - - N/A   Clear
2:15 AM 26.6 °F 26.6 °F 100% 30.42 in 9.0 mi North - - N/A   Clear
2:35 AM 28.4 °F 26.6 °F 93% 30.41 in 9.0 mi North - - N/A   Clear
2:55 AM 26.6 °F 26.6 °F 100% 30.42 in 9.0 mi North - - N/A   Clear
3:15 AM 26.6 °F 26.6 °F 100% 30.42 in 10.0 mi North - - N/A   Clear
3:35 AM 26.6 °F 26.6 °F 100% 30.42 in 9.0 mi North - - N/A   Clear
3:55 AM 26.6 °F 26.6 °F 100% 30.42 in 8.0 mi North - - N/A   Clear
4:15 AM 26.6 °F 26.6 °F 100% 30.43 in 8.0 mi North - - N/A   Clear
4:35 AM 26.6 °F 26.6 °F 100% 30.43 in 7.0 mi North - - N/A   Clear
4:55 AM 26.6 °F 26.6 °F 100% 30.43 in 7.0 mi North - - N/A   Clear
5:15 AM 26.6 °F 26.6 °F 100% 30.43 in 5.0 mi North - - N/A   Clear
5:35 AM 26.6 °F 26.6 °F 100% 30.43 in 5.0 mi North - - N/A   Clear
5:55 AM 26.6 °F 26.6 °F 100% 30.43 in 5.0 mi North - - N/A   Clear
6:15 AM 26.6 °F 26.6 °F 100% 30.44 in 5.0 mi North - - N/A   Clear
6:35 AM 26.6 °F 26.6 °F 100% 30.45 in 5.0 mi North - - N/A   Clear
6:55 AM 26.6 °F 26.6 °F 100% 30.46 in 5.0 mi North - - N/A   Clear
7:15 AM 24.8 °F 24.8 °F 100% 30.48 in 3.0 mi North - - N/A   Clear
7:35 AM 26.6 °F 26.6 °F 100% 30.47 in 3.0 mi North - - N/A   Clear
7:55 AM 26.6 °F 26.6 °F 100% 30.47 in 4.0 mi North - - N/A   Clear
8:15 AM 26.6 °F 26.6 °F 100% 30.47 in 3.0 mi North - - N/A   Clear
8:35 AM 28.4 °F 28.4 °F 100% 30.48 in 4.0 mi North - - N/A   Clear
8:55 AM 28.4 °F 28.4 °F 100% 30.49 in 4.0 mi North - - N/A   Clear
9:15 AM 30.2 °F 28.4 °F 93% 30.49 in 5.0 mi North - - N/A   Clear
9:35 AM 32.0 °F 32.0 °F 100% 30.49 in 5.0 mi North - - N/A   Clear
9:55 AM 32.0 °F 32.0 °F 100% 30.50 in 7.0 mi North - - N/A   Clear
10:15 AM 33.8 °F 32.0 °F 93% 30.49 in 8.0 mi North - - N/A   Clear
10:35 AM 35.6 °F 30.2 °F 81% 30.48 in 9.0 mi North - - N/A   Clear
10:55 AM 35.6 °F 32.0 °F 87% 30.48 in 10.0 mi North - - N/A   Clear
11:15 AM 37.4 °F 28.4 °F 70% 30.48 in 10.0 mi North - - N/A   Clear
11:35 AM 39.2 °F 30.2 °F 70% 30.46 in 10.0 mi North - - N/A   Clear
11:55 AM 39.2 °F 30.2 °F 70% 30.45 in 10.0 mi North - - N/A   Clear
12:15 PM 39.2 °F 30.2 °F 70% 30.44 in 10.0 mi North - - N/A   Clear
12:35 PM 41.0 °F 28.4 °F 61% 30.45 in 10.0 mi North - - N/A   Clear
12:55 PM 41.0 °F 32.0 °F 70% 30.44 in 10.0 mi North - - N/A   Clear
1:15 PM 41.0 °F 30.2 °F 65% 30.43 in 10.0 mi North - - N/A   Clear
1:35 PM 42.8 °F 30.2 °F 61% 30.42 in 10.0 mi North - - N/A   Clear
1:55 PM 44.6 °F 28.4 °F 53% 30.41 in 10.0 mi North - - N/A   Clear
2:15 PM 42.8 °F 28.4 °F 57% 30.40 in 10.0 mi North - - N/A   Clear
2:35 PM 42.8 °F 28.4 °F 57% 30.39 in 10.0 mi North - - N/A   Clear
2:55 PM 42.8 °F 30.2 °F 61% 30.40 in 10.0 mi North - - N/A   Clear
3:15 PM 42.8 °F 28.4 °F 57% 30.41 in 10.0 mi North - - N/A   Clear
3:35 PM 41.0 °F 28.4 °F 61% 30.41 in 10.0 mi North - - N/A   Clear
3:55 PM 41.0 °F 30.2 °F 65% 30.41 in 10.0 mi North - - N/A   Clear
4:15 PM 41.0 °F 30.2 °F 65% 30.40 in 10.0 mi North - - N/A   Clear
4:35 PM 39.2 °F 30.2 °F 70% 30.39 in 10.0 mi North - - N/A   Clear
4:55 PM 37.4 °F 30.2 °F 75% 30.40 in 10.0 mi North - - N/A   Clear
5:15 PM 37.4 °F 30.2 °F 75% 30.40 in 8.0 mi North - - N/A   Clear
5:35 PM 37.4 °F 32.0 °F 81% 30.39 in 10.0 mi North - - N/A   Clear
5:55 PM 35.6 °F 32.0 °F 87% 30.38 in 10.0 mi North - - N/A   Clear
6:15 PM 35.6 °F 32.0 °F 87% 30.39 in 10.0 mi North - - N/A   Clear
6:35 PM 35.6 °F 32.0 °F 87% 30.39 in 10.0 mi North - - N/A   Clear
6:55 PM 33.8 °F 32.0 °F 93% 30.39 in 10.0 mi North - - N/A   Clear
7:15 PM 32.0 °F 30.2 °F 93% 30.39 in 10.0 mi North - - N/A   Clear
7:35 PM 32.0 °F 28.4 °F 87% 30.38 in 10.0 mi North - - N/A   Clear
7:55 PM 32.0 °F 28.4 °F 87% 30.37 in 10.0 mi North - - N/A   Clear
8:15 PM 32.0 °F 28.4 °F 87% 30.38 in 10.0 mi North - - N/A   Clear
8:35 PM 32.0 °F 28.4 °F 87% 30.38 in 10.0 mi North - - N/A   Clear
8:55 PM 32.0 °F 28.4 °F 87% 30.38 in 10.0 mi North - - N/A   Clear
9:15 PM 32.0 °F 28.4 °F 87% 30.37 in 10.0 mi North - - N/A   Clear
9:35 PM 32.0 °F 28.4 °F 87% 30.37 in 10.0 mi North - - N/A   Clear
9:55 PM 32.0 °F 28.4 °F 87% 30.37 in 10.0 mi North - - N/A   Clear
10:15 PM 32.0 °F 28.4 °F 87% 30.36 in 10.0 mi North - - N/A   Clear
10:35 PM 30.2 °F 28.4 °F 93% 30.35 in 10.0 mi North - - N/A   Clear
10:55 PM 30.2 °F 28.4 °F 93% 30.36 in 10.0 mi North - - N/A   Clear
11:15 PM 30.2 °F 28.4 °F 93% 30.34 in 8.0 mi North - - N/A   Clear
11:35 PM 30.2 °F 28.4 °F 93% 30.34 in 7.0 mi North - - N/A   Clear
11:55 PM 30.2 °F 30.2 °F 100% 30.33 in 7.0 mi North - - N/A   Clear